sat.trackr.live / text

‹ back to catalog

STARLINK-32533

NORAD 61706 · 2024-195V

PAYLOAD ACTIVE UNKNOWN

§ Identity

Operator
Country
US
Launch date
2024-10-30
Launch site
AFWTR
Launch vehicle
Mass (kg)
RCS (m²)

Purposes: comms

External: N2YO · Heavens-Above · Gunter

§ Orbital elements

Epoch: 2026-05-25T01:42:38.954880Z

Period
93.85 min
Inclination
53.1597°
Eccentricity
0.0001080
Mean motion
15.34379622 rev/d
Perigee alt
462.0 km
Apogee alt
463.5 km
Semi-major
6,840.9 km
B*
-1.7107e-5
RAAN
159.3123°
Arg perigee
92.6724°
Mean anomaly
267.4402°
Rev number
8,889

§ Raw data

STARLINK-325331 61706U 24195V   26145.07128420 -.00000954  00000+0 -17107-4 0  99922 61706  53.1597 159.3123 0001080  92.6724 267.4402 15.34379622 88895

JSON: /api/v1/satellites/61706 · /tle

For live sub-satellite position, see the globe view (requires WebGL).

§ Visibility from observer

Set your observer location to see the next 7 days of passes ≥ 10°. The values pass through the URL so the page stays shareable.

No JS? Fill the form by hand. The geolocation button needs JavaScript.